Погода в Волковицах

Россия / Санкт-Петербург и Ленинградская область     59°38′52″N   29°49′11″E
темп.,
°C
ветер,
м/с
пор.,
м/с
влажн.,
%
обл.,
%
осадки,
мм/ч
давл.,
гПа
погр.,
м
28 сентября, вт
вт2800:00+5в22950 0.0 103232
03:00+5вюв11960 0.0 103212
06:00+4в22950 0.0 103313
09:00+7в24860 0.0 1033166
12:00+12вюв35635 0.0 1033720
15:00+13вюв345549 0.0 10331269
18:00+12вюв3559100 0.0 1033220
21:00+9ююв2675100 0.0 1035220
29 сентября, ср
ср2900:00+9ююв257382 0.0 1035153
03:00+7ююв247772 0.0 103673
06:00+9ююв2364100 0.0 103668
09:00+8ююв347439 0.0 1036208
12:00+12ююв235610 0.0 10361069
15:00+13ююв33507 0.0 10351266
18:00+10ююв236415 0.0 103553
21:00+6ю247811 0.0 103559
30 сентября, чт
чт3000:00+5ю248512 0.0 103564
03:00+4ю248917 0.0 103563
06:00+3ююв34915 0.0 103575
09:00+6ююв367858 0.0 1035181
12:00+11ююв46525 0.0 1034739
15:00+13ююв46445 0.0 10321043
18:00+9ююв376030 0.0 1031176
21:00+5ююв39818 0.0 1032190
1 октября, пт
пт100:00+5ю310845 0.0 1031199
03:00+4ю39865 0.0 1030186
06:00+4ю410885 0.0 1030214
09:00+7ю5127792 0.0 1029301
12:00+8ю4107398 0.0 1029454
15:00+9ююз4877100 0.0 1029452
18:00+8ю388399 0.0 1028350
21:00+6ю399480 0.0 1028255
2 октября, сб
сб200:00+5ю399610 0.0 1027194
03:00+5ю39966 0.0 1027179
06:00+5ю410966 0.0 1025213
09:00+7ю412845 0.0 1025336
12:00+13ю611615 0.0 1023705
15:00+15ю611515 0.0 10221072
18:00+12ю612575 0.0 1021725
21:00+10ю6146449 0.0 1021621